West Palm Beach, FL

5:11 AM EST on November 13, 2019 (GMT -0500)
Palm Beach International

Weather History for KPBI - September, 2019

Change the Weather History Date:

Saturday, September 7, 2019

  Actual Average Record
Temperature  
Mean Temperature 85 °F 82 °F  
Max Temperature 90 °F 89 °F 95 °F (1962)
Min Temperature 80 °F 75 °F 68 °F (1920)
Degree Days  
Heating Degree Days 0 0  
Month to date heating degree days 0 0  
Since 1 July heating degree days 0 0  
Cooling Degree Days 20 17  
Month to date cooling degree days 132 119  
Year to date cooling degree days 3298 2825  
Growing Degree Days 35 (Base 50)    
Moisture  
Dew Point 76 °F    
Average Humidity 77    
Maximum Humidity 94    
Minimum Humidity 59    
Precipitation  
Precipitation T in 0.28 in 6.47 in (1931)
Month to date precipitation 0.09 1.98  
Year to date precipitation 44.05 42.70  
Snow  
Snow 0.00 in - - ()
Month to date snowfall 0.0  
Since 1 July snowfall 0.0  
Since 1 September snowfall 0.0  
Snow Depth 0.00 in    
Sea Level Pressure  
Sea Level Pressure 29.94 in    
Wind  
Wind Speed 9 mph (SSW)    
Max Wind Speed 17 mph    
Max Gust Speed 21 mph    
Visibility 10 miles    
Events      
T = Trace of Precipitation, MM = Missing Value Source: NWS Daily Summary

Daily Weather History Graph

Daily Weather History Graph

Search for Another Location

Airport or City:

Astronomy

Sep. 07, 2019 Rise Set
Actual Time 7:02 AM EDT 7:34 PM EDT
Civil Twilight 6:39 AM EDT 7:57 PM EDT
Nautical Twilight 6:11 AM EDT 8:24 PM EDT
Astronomical Twilight 5:43 AM EDT 8:52 PM EDT
Moon 3:22 PM EDT (9/7) 1:17 AM EDT (9/7)
Length of Visible Light 13h 18m
Length of Day
12h 31m
Waxing Gibbous, 65% of the Moon is Illuminated
Sep 7
Waxing Gibbous
Sep 14
Full
Sep 21
Last Quarter
Sep 28
New
Oct 5
First Quarter

Hourly Weather History & Observations

Time (EDT) Temp. Heat Index Dew Point Humidity Pressure Visibility Wind Dir Wind Speed Gust Speed Precip Events Conditions
12:53 AM 82.9 °F 91.8 °F 77.0 °F 82% 29.94 in 10.0 mi WSW 9.2 mph - N/A   Scattered Clouds
1:53 AM 82.0 °F 90.2 °F 77.0 °F 85% 29.94 in 10.0 mi WSW 9.2 mph - N/A   Scattered Clouds
2:53 AM 81.0 °F 87.9 °F 77.0 °F 88% 29.93 in 10.0 mi WSW 4.6 mph - N/A   Scattered Clouds
3:53 AM 81.0 °F 87.9 °F 77.0 °F 88% 29.92 in 10.0 mi WSW 3.5 mph - N/A   Mostly Cloudy
4:53 AM 80.1 °F 85.8 °F 77.0 °F 90% 29.92 in 10.0 mi SW 8.1 mph - N/A   Scattered Clouds
5:53 AM 80.1 °F 85.8 °F 77.0 °F 90% 29.93 in 10.0 mi SW 6.9 mph - N/A   Scattered Clouds
6:53 AM 80.1 °F 85.8 °F 77.0 °F 90% 29.95 in 10.0 mi SW 3.5 mph - N/A   Scattered Clouds
7:53 AM 81.0 °F 88.6 °F 78.1 °F 91% 29.96 in 10.0 mi SW 3.5 mph - N/A   Mostly Cloudy
8:53 AM 82.9 °F 93.8 °F 79.0 °F 88% 29.98 in 10.0 mi WSW 8.1 mph - N/A   Mostly Cloudy
9:53 AM 84.0 °F 93.7 °F 77.0 °F 79% 29.99 in 10.0 mi SW 6.9 mph - N/A   Mostly Cloudy
10:53 AM 88.0 °F 100.2 °F 77.0 °F 70% 29.99 in 10.0 mi Variable 5.8 mph - N/A   Scattered Clouds
11:53 AM 89.1 °F 98.0 °F 73.9 °F 61% 29.97 in 10.0 mi WSW 6.9 mph - N/A   Mostly Cloudy
12:53 PM 89.1 °F 103.2 °F 78.1 °F 70% 29.96 in 10.0 mi SSE 9.2 mph - N/A   Mostly Cloudy
1:53 PM 89.1 °F 99.1 °F 75.0 °F 63% 29.95 in 10.0 mi SE 15.0 mph - N/A   Mostly Cloudy
2:53 PM 88.0 °F 97.5 °F 75.0 °F 65% 29.93 in 10.0 mi SE 16.1 mph - N/A   Mostly Cloudy
3:53 PM 89.1 °F 99.1 °F 75.0 °F 63% 29.92 in 10.0 mi SE 12.7 mph - N/A   Mostly Cloudy
4:53 PM 89.1 °F 99.1 °F 75.0 °F 63% 29.90 in 10.0 mi South 11.5 mph - N/A   Mostly Cloudy
5:53 PM 88.0 °F 96.5 °F 73.9 °F 63% 29.91 in 10.0 mi SSE 11.5 mph - N/A   Mostly Cloudy
6:53 PM 87.1 °F 96.3 °F 75.0 °F 67% 29.92 in 10.0 mi South 12.7 mph - N/A   Scattered Clouds
7:53 PM 86.0 °F 96.0 °F 75.9 °F 72% 29.92 in 10.0 mi SSE 11.5 mph - N/A   Mostly Cloudy
8:53 PM 84.9 °F 95.3 °F 77.0 °F 77% 29.93 in 10.0 mi SSE 11.5 mph - N/A   Mostly Cloudy
9:53 PM 84.9 °F 95.3 °F 77.0 °F 77% 29.94 in 10.0 mi South 9.2 mph - N/A   Mostly Cloudy
10:53 PM 84.9 °F 94.1 °F 75.9 °F 74% 29.96 in 10.0 mi SSW 6.9 mph - 0.00 in   Mostly Cloudy
11:53 PM 82.9 °F 90.8 °F 75.9 °F 79% 29.97 in 10.0 mi SW 10.4 mph - N/A   Mostly Cloudy